This is the latest recevied weather packets stored in our database for station/object OE2ATN. If no packets are shown the sender has not sent any weather packets the latest 10 day(s).
| Time | Temp. | Humidity | Pressure | Rain* | Wind** | Luminosity | Snow |
|---|---|---|---|---|---|---|---|
| 1778075730 | 21.11° C | 38% | 1011.5 hPa | 0 mm | - | - | - |
| 1778075431 | 21.11° C | 40% | 1011.5 hPa | 0 mm | - | - | - |
| 1778075130 | 21.67° C | 40% | 1011.5 hPa | 0 mm | - | - | - |
| 1778074830 | 21.67° C | 41% | 1011.5 hPa | 0 mm | - | - | - |
| 1778074529 | 21.11° C | 40% | 1011.3 hPa | 0 mm | - | - | - |
| 1778074229 | 21.11° C | 41% | 1011.5 hPa | 0 mm | - | - | - |
| 1778073928 | 20.56° C | 40% | 1011.6 hPa | 0 mm | - | - | - |
| 1778073629 | 20.56° C | 40% | 1011.8 hPa | 0 mm | - | - | - |
| 1778073329 | 20.56° C | 41% | 1011.7 hPa | 0 mm | - | - | - |
| 1778073028 | 20.56° C | 41% | 1011.8 hPa | 0 mm | - | - | - |
| 1778072728 | 20.56° C | 41% | 1011.9 hPa | 0 mm | - | - | - |
| 1778072430 | 20.56° C | 40% | 1011.9 hPa | 0 mm | - | - | - |
| 1778072128 | 20.56° C | 40% | 1011.9 hPa | 0 mm | - | - | - |
| 1778071828 | 20.56° C | 40% | 1011.8 hPa | 0 mm | - | - | - |
| 1778071529 | 20.56° C | 39% | 1011.8 hPa | 0 mm | - | - | - |
| 1778071227 | 20.56° C | 44% | 1011.9 hPa | 0 mm | - | - | - |
| 1778070928 | 20° C | 41% | 1012 hPa | 0 mm | - | - | - |
| 1778070628 | 20° C | 43% | 1012 hPa | 0 mm | - | - | - |
| 1778070328 | 20° C | 41% | 1012 hPa | 0 mm | - | - | - |
| 1778070028 | 20° C | 43% | 1012.1 hPa | 0 mm | - | - | - |
| 1778069727 | 20° C | 42% | 1012.1 hPa | 0 mm | - | - | - |
| 1778069427 | 20.56° C | 44% | 1012.1 hPa | 0 mm | - | - | - |
| 1778069128 | 20.56° C | 39% | 1012.1 hPa | 0 mm | - | - | - |
| 1778068830 | 20.56° C | 40% | 1012.1 hPa | 0 mm | - | - | - |
| 1778068526 | 20° C | 43% | 1012.1 hPa | 0 mm | - | - | - |
* Rain latest hour (hover to see other rain measurements)
** Current wind speed in m/s (hover to see current wind gust speed)